Total_Precipitation_Accumulation
0.00 0.00 0.01 0.04 0.04 0.04 0.09 0.19 0.21 0.17 0.21 0.29 0.29 0.25 0.24 0.11 0.07 0.08 0.09 0.11 0.18 0.26 0.22 0.13 0.11 0.10 0.08 0.05 0.06 0.08 0.09 0.13 0.15 0.17 0.23 0.25 0.23 0.24 0.26 0.25 0.19 0.35 0.22
0.00 0.01 0.02 0.05 0.05 0.03 0.07 0.14 0.20 0.20 0.23 0.29 0.29 0.30 0.20 0.10 0.07 0.08 0.09 0.10 0.13 0.15 0.14 0.12 0.12 0.10 0.08 0.09 0.11 0.12 0.11 0.13 0.15 0.15 0.17 0.14 0.15 0.19 0.17 0.15 0.14 0.20 0.16
0.01 0.01 0.04 0.07 0.05 0.03 0.05 0.12 0.22 0.26 0.31 0.35 0.37 0.36 0.16 0.06 0.06 0.08 0.11 0.14 0.14 0.08 0.06 0.09 0.12 0.10 0.08 0.10 0.13 0.15 0.17 0.12 0.12 0.12 0.17 0.23 0.16 0.19 0.23 0.27 0.23 0.17 0.15
0.01 0.05 0.12 0.13 0.09 0.07 0.09 0.18 0.26 0.33 0.39 0.44 0.44 0.30 0.08 0.04 0.07 0.11 0.15 0.19 0.13 0.04 0.03 0.05 0.08 0.06 0.05 0.08 0.11 0.12 0.15 0.12 0.11 0.11 0.21 0.32 0.31 0.35 0.33 0.33 0.29 0.16 0.16
0.02 0.10 0.21 0.19 0.16 0.13 0.14 0.24 0.34 0.40 0.38 0.42 0.39 0.19 0.06 0.06 0.09 0.14 0.20 0.16 0.08 0.03 0.02 0.02 0.04 0.04 0.03 0.04 0.08 0.09 0.12 0.12 0.15 0.15 0.22 0.30 0.37 0.34 0.31 0.42 0.41 0.23 0.19
0.02 0.07 0.13 0.18 0.18 0.16 0.21 0.29 0.32 0.29 0.30 0.37 0.31 0.17 0.08 0.12 0.14 0.16 0.13 0.07 0.03 0.02 0.01 0.01 0.02 0.03 0.03 0.04 0.06 0.07 0.09 0.10 0.15 0.19 0.23 0.28 0.36 0.30 0.32 0.41 0.43 0.29 0.19
0.01 0.02 0.06 0.14 0.14 0.14 0.21 0.28 0.29 0.22 0.27 0.32 0.29 0.22 0.11 0.14 0.17 0.18 0.10 0.03 0.02 0.02 0.02 0.01 0.01 0.02 0.03 0.04 0.06 0.07 0.07 0.06 0.11 0.16 0.24 0.32 0.28 0.20 0.25 0.40 0.51 0.46 0.27
0.00 0.01 0.03 0.09 0.11 0.12 0.17 0.23 0.25 0.23 0.27 0.26 0.20 0.17 0.17 0.13 0.15 0.13 0.07 0.03 0.01 0.02 0.05 0.02 0.01 0.02 0.03 0.06 0.07 0.06 0.05 0.02 0.04 0.08 0.16 0.23 0.22 0.23 0.21 0.26 0.38 0.46 0.34
0.00 0.00 0.02 0.03 0.06 0.10 0.16 0.18 0.22 0.24 0.26 0.23 0.12 0.12 0.19 0.10 0.08 0.06 0.03 0.01 0.01 0.02 0.04 0.02 0.01 0.02 0.05 0.08 0.09 0.05 0.02 0.01 0.01 0.03 0.06 0.10 0.13 0.16 0.16 0.17 0.22 0.28 0.30
0.01 0.02 0.01 0.02 0.04 0.08 0.12 0.16 0.15 0.15 0.19 0.17 0.09 0.11 0.16 0.08 0.06 0.04 0.01 0.00 0.01 0.02 0.04 0.02 0.02 0.04 0.06 0.08 0.06 0.01 0.00 0.00 0.01 0.02 0.03 0.03 0.03 0.03 0.04 0.08 0.10 0.13 0.17
0.03 0.06 0.04 0.02 0.02 0.06 0.13 0.16 0.18 0.18 0.19 0.17 0.12 0.14 0.12 0.08 0.06 0.04 0.02 0.01 0.02 0.05 0.06 0.03 0.03 0.04 0.03 0.05 0.02 0.00 0.00 0.00 0.01 0.03 0.05 0.04 0.03 0.02 0.01 0.02 0.03 0.05 0.07
0.03 0.07 0.08 0.06 0.03 0.02 0.08 0.16 0.23 0.20 0.15 0.15 0.13 0.13 0.12 0.08 0.09 0.04 0.06 0.07 0.03 0.05 0.06 0.04 0.04 0.02 0.00 0.00 0.00 0.00 0.00 0.00 0.01 0.04 0.06 0.08 0.07 0.04 0.02 0.02 0.01 0.02 0.03
0.02 0.05 0.04 0.03 0.02 0.02 0.07 0.15 0.19 0.21 0.20 0.23 0.14 0.12 0.06 0.03 0.02 0.02 0.04 0.08 0.05 0.06 0.04 0.04 0.03 0.02 0.02 0.00 0.00 0.00 0.00 0.00 0.02 0.06 0.09 0.15 0.14 0.10 0.06 0.04 0.03 0.03 0.03
0.02 0.02 0.02 0.02 0.03 0.03 0.02 0.06 0.09 0.11 0.13 0.15 0.14 0.09 0.03 0.02 0.02 0.03 0.05 0.10 0.08 0.03 0.03 0.05 0.04 0.04 0.04 0.01 0.00 0.00 0.00 0.01 0.05 0.11 0.11 0.23 0.29 0.22 0.16 0.11 0.08 0.06 0.05
0.02 0.03 0.03 0.04 0.05 0.06 0.03 0.03 0.03 0.04 0.07 0.14 0.18 0.10 0.03 0.01 0.03 0.06 0.07 0.14 0.10 0.03 0.05 0.08 0.03 0.03 0.04 0.01 0.01 0.00 0.00 0.02 0.06 0.10 0.13 0.25 0.44 0.52 0.39 0.27 0.18 0.13 0.12
0.08 0.14 0.14 0.13 0.14 0.10 0.06 0.04 0.05 0.03 0.05 0.10 0.12 0.09 0.03 0.01 0.02 0.06 0.05 0.07 0.05 0.05 0.08 0.04 0.04 0.05 0.05 0.01 0.00 0.00 0.00 0.01 0.03 0.09 0.17 0.24 0.41 0.62 0.69 0.54 0.42 0.32 0.22
0.08 0.17 0.25 0.23 0.22 0.16 0.10 0.08 0.09 0.05 0.04 0.07 0.13 0.10 0.04 0.02 0.03 0.06 0.04 0.03 0.05 0.07 0.07 0.07 0.09 0.07 0.07 0.02 0.01 0.00 0.00 0.02 0.02 0.03 0.08 0.18 0.24 0.31 0.46 0.56 0.60 0.53 0.36
0.07 0.17 0.24 0.23 0.27 0.24 0.17 0.11 0.12 0.08 0.07 0.11 0.12 0.12 0.09 0.03 0.02 0.07 0.06 0.04 0.11 0.14 0.11 0.09 0.06 0.05 0.07 0.04 0.03 0.01 0.00 0.01 0.02 0.02 0.02 0.03 0.04 0.04 0.05 0.10 0.14 0.25 0.33
0.06 0.13 0.14 0.18 0.37 0.36 0.26 0.28 0.26 0.17 0.18 0.22 0.20 0.20 0.15 0.06 0.04 0.08 0.09 0.05 0.07 0.16 0.16 0.11 0.08 0.10 0.06 0.05 0.03 0.02 0.00 0.00 0.00 0.00 0.00 0.00 0.00 0.00 0.00 0.00 0.00 0.02 0.05
0.07 0.12 0.15 0.21 0.29 0.40 0.53 0.52 0.50 0.43 0.37 0.41 0.39 0.37 0.26 0.15 0.08 0.10 0.12 0.07 0.06 0.17 0.24 0.17 0.17 0.15 0.13 0.10 0.07 0.04 0.01 0.00 0.00 0.00 0.00 0.00 0.00 0.00 0.00 0.00 0.00 0.00 0.00
0.07 0.11 0.14 0.27 0.37 0.48 0.57 0.59 0.64 0.69 0.67 0.66 0.66 0.58 0.47 0.29 0.18 0.16 0.13 0.16 0.16 0.21 0.31 0.31 0.33 0.29 0.19 0.10 0.18 0.16 0.06 0.01 0.00 0.00 0.00 0.00 0.00 0.00 0.00 0.00 0.00 0.00 0.00
0.05 0.09 0.14 0.25 0.40 0.51 0.61 0.63 0.59 0.70 0.72 0.68 0.73 0.70 0.67 0.52 0.35 0.25 0.20 0.25 0.23 0.30 0.49 0.47 0.43 0.36 0.23 0.11 0.21 0.32 0.18 0.08 0.03 0.00 0.00 0.00 0.00 0.00 0.00 0.00 0.00 0.00 0.00
0.03 0.06 0.10 0.18 0.30 0.44 0.54 0.52 0.44 0.44 0.53 0.56 0.56 0.58 0.64 0.67 0.58 0.45 0.36 0.35 0.32 0.33 0.48 0.54 0.50 0.42 0.31 0.16 0.12 0.21 0.28 0.24 0.10 0.01 0.00 0.00 0.00 0.00 0.00 0.00 0.00 0.00 0.00
0.01 0.03 0.05 0.13 0.14 0.17 0.22 0.25 0.25 0.25 0.36 0.50 0.52 0.52 0.53 0.62 0.68 0.63 0.53 0.49 0.38 0.30 0.33 0.41 0.49 0.46 0.44 0.31 0.19 0.13 0.11 0.14 0.14 0.07 0.02 0.00 0.00 0.00 0.00 0.00 0.00 0.00 0.00
0.00 0.01 0.02 0.02 0.01 0.02 0.07 0.13 0.13 0.12 0.21 0.35 0.39 0.39 0.46 0.58 0.61 0.54 0.51 0.52 0.43 0.32 0.30 0.37 0.49 0.54 0.45 0.39 0.30 0.27 0.21 0.13 0.06 0.11 0.12 0.05 0.01 0.00 0.00 0.00 0.00 0.00 0.00
0.00 0.00 0.00 0.00 0.00 0.00 0.03 0.06 0.06 0.06 0.15 0.21 0.30 0.40 0.54 0.64 0.60 0.49 0.48 0.51 0.55 0.48 0.39 0.36 0.42 0.49 0.50 0.53 0.45 0.34 0.32 0.23 0.11 0.10 0.15 0.14 0.08 0.02 0.00 0.00 0.00 0.00 0.00